Location: Recife
(8.0585°S, 34.8848°W)
Time: 11:09:05
(UTC-03:00)

Transit 2A Rocket - Pass Details

Date: 22 April 2026
Orbit: 587 x 895 km, 66.7° (Epoch: 14 May)

Event Time Altitude Azimuth Distance (km) Brightness Sun altitude
Rises 23:08:54 0° 233° (SW) 3,475 - -85.0°
Reaches altitude 10° 23:12:37 10° 256° (WSW) 2,556 - -85.4°
Maximum altitude 23:15:41 14° 288° (WNW) 2,253 - -85.5°
Drops below altitude 10° 23:18:46 10° 319° (NW) 2,553 - -85.6°
Sets 23:22:31 0° 343° (NNW) 3,468 - -85.4°
